Voltar ao catálogo

WESTFORD NEEDLES

AtivoPO
NORAD 3255·DEBRIS·🇺🇸 United States

Lançado May 9, 1963 de Vandenberg Space Force Base

Loading…

Próximas Passagens (próximas 24 horas)

TLE

AtualizadoSource: Space-Track

Época: Sep 13, 2026, 03:44 UTC

1  3255U 63014BV  26256.15615714  .00000347  00000-0  15570+0 0  9991
2  3255  87.3561 160.9428 0185944  93.9418 268.2715  8.66828129389047

Acompanhe WESTFORD NEEDLES em tempo real com AllMySat

Download on the App Store